Hourly Data Report for October 24, 2015

All times are specified in Local Standard Time (LST). Add 1 hour to adjust for Daylight Saving Time where and when it is observed.

RANKIN INLET A
NUNAVUT

62°48'38.000" N
92°06'53.000" W
32.30 m
2303405
71083
YRT

Download Data

Hourly Data (October 2015)
Hourly Data Report for October 24, 2015
Temp Definition
°C
Dew Point Temp Definition
°C
Rel Hum Definition
%
Wind Dir Definition
10's deg

Wind Spd Definition
km/h
Visibility Definition
km
Stn Press Definition
kPa
Hmdx Definition


Wind Chill Definition


Weather Definition


TIME
00:00 Legend Double Dagger -8.2 -9.7 89 35 61 3.2 99.51   -20 Snow,Blowing Snow
01:00 Legend Double Dagger -10.2 -12.0 87 35 59 3.2 99.73   -23 Snow,Blowing Snow
02:00 Legend Double Dagger -11.4 -13.4 85 35 63 3.2 99.85   -25 Snow,Blowing Snow
03:00 Legend Double Dagger -12.2 -14.4 84 36 62 3.2 100.01   -26 Snow,Blowing Snow
04:00 Legend Double Dagger -13.2 -15.5 83 35 52 3.2 100.19   -26 Snow,Blowing Snow
05:00 Legend Double Dagger -14.7 -17.0 83 34 54 3.2 100.26   -29 Blowing Snow
06:00 Legend Double Dagger -15.6 -18.3 80 35 53 3.2 100.42   -30 Blowing Snow
07:00 Legend Double Dagger -16.8 -19.5 80 35 58 3.2 100.46   -32 Blowing Snow
08:00 Legend Double Dagger -17.5 -20.5 78 35 50 4.8 100.61   -32 Blowing Snow
09:00 Legend Double Dagger -17.4 -20.5 77 34 50 24.1 100.66   -32 Blowing Snow
10:00 Legend Double Dagger -17.3 -20.4 77 34 52 16.1 100.75   -32 Blowing Snow
11:00 Legend Double Dagger -16.4 -20.0 74 34 54 24.1 100.78   -31 Blowing Snow
12:00 Legend Double Dagger -15.4 -18.9 75 33 40 24.1 100.87   -28 Blowing Snow
13:00 Legend Double Dagger -14.1 -17.3 77 33 41 16.1 100.87   -26 Blowing Snow
14:00 Legend Double Dagger -13.5 -15.8 83 34 43 0.8 100.88   -26 Snow,Blowing Snow
15:00 Legend Double Dagger -14.1 -17.1 78 32 31 24.1 100.91   -25 Blowing Snow
16:00 Legend Double Dagger -14.6 -18.3 74 31 30 24.1 100.90   -26 Blowing Snow
17:00 Legend Double Dagger -14.6 -17.3 80 30 35 12.9 100.91   -26 Snow,Blowing Snow
18:00 Legend Double Dagger -16.5 -19.5 78 30 35 24.1 100.90   -29 Blowing Snow
19:00 Legend Double Dagger -17.1 -20.2 77 30 33 24.1 100.87   -29 Blowing Snow
20:00 Legend Double Dagger -17.1 -20.1 78 30 32 24.1 100.84   -29 LegendNANA
21:00 Legend Double Dagger -16.3 -19.3 78 31 33 24.1 100.78   -28 Mainly Clear
22:00 Legend Double Dagger -16.4 -19.4 78 30 36 24.1 100.78   -29 Snow,Blowing Snow
23:00 Legend Double Dagger -15.6 -18.5 79 30 38 24.1 100.76   -28 Snow,Blowing Snow

Notes on Data Quality.

Legend

  • E = Estimated
  • M = Missing
  • NA = Not Available
  • ‡ = Partner data that is not subject to review by the National Climate Archives
Date modified: